Hourly Weather Suhaya Balka

Today, 17 January, Sunday

Time Temperature Precipitation Wind Pressure Humidity
00:00 -12°C° 0 mm 2 mps 750 mmHg 87%
01:00 -12°C° 0 mm 2 mps 750 mmHg 87%
02:00 -11°C° 0 mm 1 mps 749 mmHg 87%
03:00 -11°C° 0 mm 1 mps 749 mmHg 86%
04:00 -11°C° 0 mm 1 mps 749 mmHg 86%
05:00 -11°C° 0 mm 1 mps 749 mmHg 86%
06:00 -11°C° 0 mm 1 mps 748 mmHg 86%
07:00 -11°C° 0 mm 1 mps 748 mmHg 86%
08:00 -13°C° 0 mm 2 mps 748 mmHg 86%
09:00 -12°C° 0 mm 2 mps 748 mmHg 86%
10:00 -13°C° 0 mm 3 mps 748 mmHg 85%
11:00 -12°C° 0 mm 3 mps 748 mmHg 83%
12:00 -12°C° 0 mm 4 mps 747 mmHg 82%
13:00 -12°C° 0.2 mm 4 mps 747 mmHg 84%
14:00 -11°C° 0.2 mm 4 mps 747 mmHg 86%
15:00 -12°C° 0 mm 4 mps 747 mmHg 86%
16:00 -13°C° 0.3 mm 5 mps 747 mmHg 87%
17:00 -13°C° 0.3 mm 5 mps 747 mmHg 88%
18:00 -15°C° 0.3 mm 6 mps 747 mmHg 89%
19:00 -15°C° 0 mm 6 mps 747 mmHg 89%
20:00 -15°C° 0 mm 6 mps 747 mmHg 88%
21:00 -15°C° 0 mm 6 mps 747 mmHg 88%
22:00 -15°C° 0.2 mm 6 mps 746 mmHg 89%
23:00 -15°C° 0.2 mm 6 mps 746 mmHg 91%

Tomorrow, 18 January, Monday

Time Temperature Precipitation Wind Pressure Humidity
00:00 -14°C° 0.2 mm 5 mps 746 mmHg 92%
01:00 -15°C° 0.8 mm 6 mps 746 mmHg 93%
02:00 -15°C° 0.8 mm 6 mps 746 mmHg 93%
03:00 -15°C° 0.8 mm 6 mps 746 mmHg 94%
04:00 -14°C° 1.2 mm 5 mps 746 mmHg 94%
05:00 -14°C° 1.2 mm 5 mps 745 mmHg 94%
06:00 -14°C° 1.2 mm 4 mps 745 mmHg 94%
07:00 -14°C° 0.8 mm 4 mps 746 mmHg 94%
08:00 -13°C° 0.8 mm 3 mps 746 mmHg 94%
09:00 -13°C° 0.8 mm 3 mps 747 mmHg 94%
10:00 -12°C° 0.2 mm 3 mps 747 mmHg 94%
11:00 -12°C° 0.2 mm 3 mps 747 mmHg 93%
12:00 -10°C° 0.2 mm 2 mps 748 mmHg 92%
13:00 -10°C° 0 mm 2 mps 748 mmHg 93%
14:00 -10°C° 0 mm 2 mps 747 mmHg 93%
15:00 -9°C° 0 mm 1 mps 747 mmHg 93%
16:00 -10°C° 0 mm 1 mps 748 mmHg 94%
17:00 -11°C° 0 mm 1 mps 748 mmHg 95%
18:00 -13°C° 0 mm 1 mps 749 mmHg 96%
19:00 -13°C° 0 mm 1 mps 749 mmHg 96%
20:00 -13°C° 0 mm 1 mps 749 mmHg 96%
21:00 -14°C° 0 mm 1 mps 749 mmHg 96%
22:00 -14°C° 0 mm 1 mps 750 mmHg 95%
23:00 -14°C° 0 mm 1 mps 750 mmHg 95%

Day after tomorrow, 19 January, Tuesday

Time Temperature Precipitation Wind Pressure Humidity
00:00 -14°C° 0 mm 1 mps 750 mmHg 95%
01:00 -17°C° 0 mm 2 mps 750 mmHg 95%
02:00 -18°C° 0 mm 2 mps 750 mmHg 95%
03:00 -18°C° 0 mm 2 mps 750 mmHg 95%
04:00 -19°C° 0 mm 2 mps 750 mmHg 95%
05:00 -18°C° 0 mm 1 mps 750 mmHg 96%
06:00 -18°C° 0 mm 1 mps 750 mmHg 96%
07:00 -18°C° 0 mm 1 mps 750 mmHg 96%
08:00 -18°C° 0 mm 1 mps 751 mmHg 95%
09:00 -18°C° 0 mm 1 mps 751 mmHg 94%
10:00 -16°C° 0 mm 1 mps 751 mmHg 93%
11:00 -15°C° 0 mm 1 mps 751 mmHg 92%
12:00 -13°C° 0 mm 1 mps 751 mmHg 90%
13:00 -13°C° 0.2 mm 1 mps 750 mmHg 91%
14:00 -13°C° 0.2 mm 1 mps 750 mmHg 91%
15:00 -14°C° 0.2 mm 2 mps 750 mmHg 92%
16:00 -15°C° 0 mm 2 mps 750 mmHg 93%
17:00 -17°C° 0 mm 2 mps 751 mmHg 94%
18:00 -18°C° 0 mm 2 mps 751 mmHg 95%
19:00 -19°C° 0 mm 2 mps 751 mmHg 95%
20:00 -19°C° 0 mm 2 mps 752 mmHg 95%
21:00 -20°C° 0 mm 2 mps 752 mmHg 96%
22:00 -20°C° 0 mm 2 mps 752 mmHg 96%
23:00 -20°C° 0 mm 2 mps 753 mmHg 97%

20 January, Wednesday

Time Temperature Precipitation Wind Pressure Humidity
00:00 -20°C° 0 mm 2 mps 753 mmHg 98%
01:00 -21°C° 0 mm 2 mps 753 mmHg 97%
02:00 -21°C° 0 mm 2 mps 753 mmHg 97%
03:00 -21°C° 0 mm 2 mps 754 mmHg 97%
04:00 -23°C° 0 mm 2 mps 754 mmHg 97%
05:00 -23°C° 0 mm 2 mps 754 mmHg 97%
06:00 -23°C° 0 mm 2 mps 754 mmHg 97%
07:00 -23°C° 0 mm 2 mps 755 mmHg 97%
08:00 -23°C° 0 mm 2 mps 755 mmHg 96%
09:00 -23°C° 0 mm 2 mps 755 mmHg 96%
10:00 -21°C° 0 mm 2 mps 755 mmHg 94%
11:00 -19°C° 0 mm 2 mps 756 mmHg 92%
12:00 -18°C° 0 mm 2 mps 756 mmHg 90%
13:00 -16°C° 0 mm 1 mps 756 mmHg 91%
14:00 -15°C° 0 mm 1 mps 756 mmHg 92%
15:00 -15°C° 0 mm 1 mps 756 mmHg 92%
16:00 -17°C° 0 mm 1 mps 756 mmHg 94%
17:00 -18°C° 0 mm 1 mps 757 mmHg 95%
18:00 -19°C° 0 mm 1 mps 757 mmHg 96%
19:00 -20°C° 0 mm 1 mps 757 mmHg 97%
20:00 -20°C° 0 mm 1 mps 757 mmHg 97%
21:00 -21°C° 0 mm 0 mps 758 mmHg 97%
22:00 -21°C° 0 mm 1 mps 758 mmHg 97%
23:00 -21°C° 0 mm 1 mps 758 mmHg 97%

21 January, Thursday

Time Temperature Precipitation Wind Pressure Humidity
00:00 -21°C° 0 mm 1 mps 758 mmHg 96%
01:00 -21°C° 0 mm 0 mps 758 mmHg 97%
02:00 -21°C° 0 mm 0 mps 759 mmHg 97%
03:00 -21°C° 0 mm 0 mps 759 mmHg 97%
04:00 -21°C° 0 mm 0 mps 759 mmHg 96%
05:00 -21°C° 0 mm 0 mps 759 mmHg 96%
06:00 -21°C° 0 mm 0 mps 759 mmHg 96%
07:00 -21°C° 0 mm 0 mps 759 mmHg 94%
08:00 -20°C° 0 mm 1 mps 760 mmHg 93%
09:00 -20°C° 0 mm 1 mps 760 mmHg 91%
10:00 -18°C° 0 mm 1 mps 760 mmHg 90%
11:00 -16°C° 0 mm 1 mps 760 mmHg 89%
12:00 -17°C° 0 mm 2 mps 760 mmHg 88%
13:00 -16°C° 0 mm 2 mps 760 mmHg 89%
14:00 -16°C° 0 mm 2 mps 760 mmHg 91%
15:00 -15°C° 0 mm 2 mps 760 mmHg 92%
16:00 -16°C° 0 mm 2 mps 760 mmHg 92%
17:00 -17°C° 0 mm 2 mps 760 mmHg 93%
18:00 -18°C° 0 mm 2 mps 760 mmHg 93%
19:00 -18°C° 0 mm 2 mps 760 mmHg 93%
20:00 -18°C° 0 mm 2 mps 760 mmHg 94%
21:00 -19°C° 0 mm 3 mps 760 mmHg 94%
22:00 -19°C° 0 mm 3 mps 759 mmHg 95%
23:00 -18°C° 0 mm 3 mps 759 mmHg 95%

22 January, Friday

Time Temperature Precipitation Wind Pressure Humidity
00:00 -18°C° 0 mm 3 mps 759 mmHg 96%
01:00 -16°C° 0 mm 3 mps 759 mmHg 96%
02:00 -15°C° 0 mm 3 mps 758 mmHg 97%
03:00 -13°C° 0 mm 3 mps 758 mmHg 97%
04:00 -10°C° 0 mm 3 mps 758 mmHg 97%
05:00 -8°C° 0 mm 2 mps 757 mmHg 96%
06:00 -7°C° 0 mm 2 mps 757 mmHg 96%
07:00 -6°C° 0 mm 3 mps 757 mmHg 96%
08:00 -4°C° 0 mm 4 mps 757 mmHg 97%
09:00 -3°C° 0 mm 4 mps 757 mmHg 97%
10:00 -2°C° 0 mm 5 mps 757 mmHg 97%
11:00 -2°C° 0 mm 5 mps 757 mmHg 98%
12:00 -1°C° 0 mm 5 mps 757 mmHg 99%
13:00 -1°C° 0 mm 5 mps 757 mmHg 99%
14:00 -1°C° 0 mm 5 mps 756 mmHg 99%
15:00 -1°C° 0 mm 5 mps 756 mmHg 99%
16:00 -1°C° 0 mm 5 mps 756 mmHg 98%
17:00 -1°C° 0 mm 5 mps 756 mmHg 98%
18:00 -1°C° 0 mm 5 mps 756 mmHg 97%
19:00 -1°C° 0 mm 4 mps 756 mmHg 97%
20:00 -1°C° 0 mm 4 mps 756 mmHg 97%
21:00 -1°C° 0 mm 4 mps 756 mmHg 97%
22:00 -2°C° 0 mm 4 mps 756 mmHg 96%
23:00 -3°C° 0 mm 4 mps 756 mmHg 96%
Show more